Time,TemperatureF,DewpointF,PressureIn,WindDirection,WindDirectionDegrees,WindSpeedMPH,WindSpeedGustMPH,Humidity,HourlyPrecipIn,Conditions,Clouds,dailyrainin,SoftwareType,DateUTC
2013-01-30 00:02:00,51.7,51.4,29.36,South,175,0.0,5.0,99,0.00,,,1.38,Wunderground v.1.15,2013-01-30 06:02:00,
2013-01-30 00:12:00,51.3,51.0,29.36,WSW,244,2.0,2.0,99,0.00,,,0.01,Wunderground v.1.15,2013-01-30 06:12:00,
2013-01-30 00:22:00,51.1,50.8,29.36,WSW,244,1.0,3.0,99,0.00,,,0.01,Wunderground v.1.15,2013-01-30 06:22:00,
2013-01-30 00:32:00,50.6,50.3,29.38,WSW,249,3.0,4.0,99,0.00,,,0.01,Wunderground v.1.15,2013-01-30 06:32:00,
2013-01-30 00:42:00,50.8,50.5,29.39,WSW,251,4.0,5.0,99,0.00,,,0.01,Wunderground v.1.15,2013-01-30 06:42:00,
2013-01-30 00:52:00,48.9,48.6,29.39,NW,311,7.0,8.0,99,0.00,,,0.02,Wunderground v.1.15,2013-01-30 06:52:00,
2013-01-30 01:02:00,45.7,45.2,29.38,NW,325,8.0,8.0,98,0.07,,,0.03,Wunderground v.1.15,2013-01-30 07:02:00,
2013-01-30 01:12:00,44.5,44.0,29.36,NNE,28,8.0,8.0,98,0.10,,,0.05,Wunderground v.1.15,2013-01-30 07:12:00,
2013-01-30 01:22:00,44.2,43.9,29.38,NNW,330,6.0,6.0,99,0.07,,,0.06,Wunderground v.1.15,2013-01-30 07:22:00,
2013-01-30 01:32:00,44.1,43.8,29.39,NNW,333,5.0,5.0,99,0.04,,,0.06,Wunderground v.1.15,2013-01-30 07:32:00,
2013-01-30 01:42:00,43.9,43.6,29.39,NW,325,7.0,7.0,99,0.00,,,0.06,Wunderground v.1.15,2013-01-30 07:42:00,
2013-01-30 01:52:00,43.2,42.9,29.38,North,355,7.0,7.0,99,0.00,,,0.06,Wunderground v.1.15,2013-01-30 07:52:00,
2013-01-30 02:02:00,43.1,42.8,29.38,NNW,344,5.0,16.0,99,0.00,,,0.07,Wunderground v.1.15,2013-01-30 08:02:00,
2013-01-30 02:12:00,43.0,42.7,29.39,NW,313,6.0,6.0,99,0.00,,,0.07,Wunderground v.1.15,2013-01-30 08:12:00,
2013-01-30 02:22:00,42.8,42.5,29.40,NW,315,4.0,4.0,99,0.00,,,0.07,Wunderground v.1.15,2013-01-30 08:22:00,
2013-01-30 02:32:00,42.5,42.2,29.40,NW,311,5.0,6.0,99,0.00,,,0.07,Wunderground v.1.15,2013-01-30 08:32:00,
2013-01-30 02:42:00,42.3,42.0,29.40,NW,309,5.0,5.0,99,0.00,,,0.08,Wunderground v.1.15,2013-01-30 08:42:00,
2013-01-30 02:52:00,42.3,42.0,29.43,WNW,299,4.0,4.0,99,0.04,,,0.09,Wunderground v.1.15,2013-01-30 08:52:00,
2013-01-30 03:02:00,42.1,41.8,29.45,WNW,282,5.0,14.0,99,0.07,,,0.10,Wunderground v.1.15,2013-01-30 09:02:00,
2013-01-30 03:12:00,42.0,41.7,29.43,WNW,285,6.0,6.0,99,0.06,,,0.11,Wunderground v.1.15,2013-01-30 09:12:00,
2013-01-30 03:22:00,41.8,41.5,29.41,WNW,300,5.0,5.0,99,0.07,,,0.12,Wunderground v.1.15,2013-01-30 09:22:00,
2013-01-30 03:32:00,41.6,41.3,29.39,WNW,299,4.0,4.0,99,0.00,,,0.12,Wunderground v.1.15,2013-01-30 09:32:00,
2013-01-30 03:42:00,41.4,41.1,29.35,ENE,58,3.0,4.0,99,0.00,,,0.12,Wunderground v.1.15,2013-01-30 09:42:00,
2013-01-30 03:51:00,41.2,40.9,29.32,NE,41,3.0,3.0,99,0.00,,,0.12,Wunderground v.1.15,2013-01-30 09:51:00,
2013-01-30 04:02:00,41.2,40.9,29.30,ENE,73,1.0,9.0,99,0.00,,,0.12,Wunderground v.1.15,2013-01-30 10:02:00,
2013-01-30 04:12:00,41.3,41.0,29.31,ENE,78,1.0,1.0,99,0.00,,,0.12,Wunderground v.1.15,2013-01-30 10:12:00,
2013-01-30 04:22:00,41.3,41.0,29.33,East,79,0.0,0.0,99,0.00,,,0.12,Wunderground v.1.15,2013-01-30 10:22:00,
2013-01-30 04:32:00,41.4,41.1,29.31,East,79,0.0,0.0,99,0.00,,,0.12,Wunderground v.1.15,2013-01-30 10:32:00,
2013-01-30 04:42:00,41.3,41.0,29.31,East,79,0.0,0.0,99,0.00,,,0.12,Wunderground v.1.15,2013-01-30 10:42:00,
2013-01-30 04:52:00,41.4,41.1,29.31,East,79,0.0,0.0,99,0.00,,,0.12,Wunderground v.1.15,2013-01-30 10:52:00,
2013-01-30 05:02:00,41.4,41.1,29.31,East,79,0.0,9.0,99,0.00,,,0.12,Wunderground v.1.15,2013-01-30 11:02:00,
2013-01-30 05:12:00,41.4,41.1,29.32,East,79,0.0,0.0,99,0.00,,,0.12,Wunderground v.1.15,2013-01-30 11:12:00,
2013-01-30 05:22:00,41.5,41.2,29.32,East,79,0.0,0.0,99,0.00,,,0.12,Wunderground v.1.15,2013-01-30 11:22:00,
2013-01-30 05:32:00,41.5,41.2,29.32,East,79,0.0,0.0,99,0.00,,,0.12,Wunderground v.1.15,2013-01-30 11:32:00,
2013-01-30 05:42:00,41.5,41.2,29.31,East,79,0.0,0.0,99,0.00,,,0.12,Wunderground v.1.15,2013-01-30 11:42:00,
2013-01-30 05:51:00,41.6,41.3,29.32,East,79,0.0,0.0,99,0.00,,,0.12,Wunderground v.1.15,2013-01-30 11:51:00,
2013-01-30 06:02:00,41.6,41.3,29.31,East,79,0.0,0.0,99,0.00,,,0.12,Wunderground v.1.15,2013-01-30 12:02:00,
2013-01-30 06:12:00,41.6,41.3,29.31,East,79,0.0,0.0,99,0.00,,,0.12,Wunderground v.1.15,2013-01-30 12:12:00,
2013-01-30 06:22:00,41.5,41.2,29.30,East,79,0.0,0.0,99,0.00,,,0.12,Wunderground v.1.15,2013-01-30 12:22:00,
2013-01-30 06:32:00,41.5,41.2,29.30,East,79,0.0,0.0,99,0.00,,,0.12,Wunderground v.1.15,2013-01-30 12:32:00,
2013-01-30 06:42:00,41.5,41.2,29.29,East,79,0.0,0.0,99,0.00,,,0.12,Wunderground v.1.15,2013-01-30 12:42:00,
2013-01-30 06:52:00,41.5,41.2,29.28,East,79,0.0,0.0,99,0.00,,,0.12,Wunderground v.1.15,2013-01-30 12:52:00,
2013-01-30 07:02:00,41.5,41.2,29.28,East,79,0.0,0.0,99,0.00,,,0.12,Wunderground v.1.15,2013-01-30 13:02:00,
2013-01-30 07:12:00,41.5,41.2,29.29,East,79,0.0,0.0,99,0.00,,,0.13,Wunderground v.1.15,2013-01-30 13:12:00,
2013-01-30 07:22:00,41.6,41.3,29.27,East,79,0.0,0.0,99,0.00,,,0.13,Wunderground v.1.15,2013-01-30 13:22:00,
2013-01-30 07:32:00,41.7,41.4,29.27,SE,145,1.0,3.0,99,0.00,,,0.13,Wunderground v.1.15,2013-01-30 13:32:00,
2013-01-30 07:42:00,41.9,41.6,29.27,SE,146,0.0,2.0,99,0.00,,,0.13,Wunderground v.1.15,2013-01-30 13:42:00,
2013-01-30 07:52:00,42.2,41.9,29.26,SSE,147,0.0,0.0,99,0.00,,,0.14,Wunderground v.1.15,2013-01-30 13:52:00,
2013-01-30 08:02:00,42.7,42.7,29.25,South,180,1.0,1.0,100,0.00,,,0.14,Wunderground v.1.15,2013-01-30 14:02:00,
2013-01-30 08:12:00,43.3,43.3,29.26,South,187,1.0,4.0,100,0.00,,,0.14,Wunderground v.1.15,2013-01-30 14:12:00,
2013-01-30 08:22:00,42.7,42.4,29.29,West,273,14.0,15.0,99,0.09,,,0.16,Wunderground v.1.15,2013-01-30 14:22:00,
2013-01-30 08:32:00,40.8,40.5,29.29,West,277,15.0,15.0,99,0.04,,,0.16,Wunderground v.1.15,2013-01-30 14:32:00,
2013-01-30 08:42:00,39.9,39.6,29.30,West,267,13.0,13.0,99,0.00,,,0.16,Wunderground v.1.15,2013-01-30 14:42:00,
2013-01-30 08:52:00,39.1,38.8,29.31,West,279,12.0,12.0,99,0.00,,,0.16,Wunderground v.1.15,2013-01-30 14:52:00,
2013-01-30 09:02:00,38.6,38.3,29.31,West,275,11.0,14.0,99,0.00,,,0.16,Wunderground v.1.15,2013-01-30 15:02:00,
2013-01-30 09:12:00,38.0,37.7,29.31,West,271,12.0,12.0,99,0.00,,,0.16,Wunderground v.1.15,2013-01-30 15:12:00,
2013-01-30 09:22:00,38.3,38.0,29.30,West,279,11.0,11.0,99,0.00,,,0.16,Wunderground v.1.15,2013-01-30 15:22:00,
2013-01-30 09:32:00,38.2,37.9,29.31,West,264,11.0,11.0,99,0.00,,,0.16,Wunderground v.1.15,2013-01-30 15:32:00,
2013-01-30 09:42:00,38.2,37.9,29.31,West,271,11.0,11.0,99,0.00,,,0.16,Wunderground v.1.15,2013-01-30 15:42:00,
2013-01-30 09:52:00,37.9,37.4,29.32,WSW,258,10.0,13.0,98,0.00,,,0.16,Wunderground v.1.15,2013-01-30 15:52:00,
2013-01-30 10:02:00,37.7,37.2,29.32,West,275,12.0,12.0,98,0.00,,,0.16,Wunderground v.1.15,2013-01-30 16:02:00,
2013-01-30 10:12:00,37.7,37.2,29.33,West,269,12.0,12.0,98,0.00,,,0.16,Wunderground v.1.15,2013-01-30 16:12:00,
2013-01-30 10:22:00,38.0,37.5,29.33,WSW,254,11.0,14.0,98,0.00,,,0.16,Wunderground v.1.15,2013-01-30 16:22:00,
2013-01-30 10:32:00,37.8,37.3,29.34,West,268,13.0,13.0,98,0.00,,,0.16,Wunderground v.1.15,2013-01-30 16:32:00,
2013-01-30 10:42:00,37.6,36.8,29.34,WSW,242,14.0,14.0,97,0.00,,,0.16,Wunderground v.1.15,2013-01-30 16:42:00,
2013-01-30 10:52:00,37.5,36.7,29.35,West,277,11.0,11.0,97,0.00,,,0.16,Wunderground v.1.15,2013-01-30 16:52:00,
2013-01-30 11:02:00,37.3,36.5,29.35,West,280,13.0,13.0,97,0.00,,,0.16,Wunderground v.1.15,2013-01-30 17:02:00,
2013-01-30 11:12:00,37.1,36.3,29.34,West,265,14.0,17.0,97,0.00,,,0.16,Wunderground v.1.15,2013-01-30 17:12:00,
2013-01-30 11:22:00,36.8,35.8,29.35,West,275,14.0,19.0,96,0.00,,,0.16,Wunderground v.1.15,2013-01-30 17:22:00,
2013-01-30 11:32:00,36.7,35.7,29.35,West,281,13.0,13.0,96,0.00,,,0.16,Wunderground v.1.15,2013-01-30 17:32:00,
2013-01-30 11:42:00,36.5,35.5,29.35,WNW,286,14.0,14.0,96,0.00,,,0.16,Wunderground v.1.15,2013-01-30 17:42:00,
2013-01-30 11:52:00,36.5,35.5,29.35,West,277,11.0,11.0,96,0.00,,,0.16,Wunderground v.1.15,2013-01-30 17:52:00,
2013-01-30 12:02:00,36.1,35.1,29.35,West,281,12.0,12.0,96,0.00,,,0.16,Wunderground v.1.15,2013-01-30 18:02:00,
2013-01-30 12:12:00,35.8,34.8,29.34,WNW,290,10.0,14.0,96,0.00,,,0.16,Wunderground v.1.15,2013-01-30 18:12:00,
2013-01-30 12:22:00,35.2,34.2,29.35,West,279,14.0,14.0,96,0.00,,,0.16,Wunderground v.1.15,2013-01-30 18:22:00,
2013-01-30 12:32:00,35.0,34.0,29.36,WNW,284,12.0,12.0,96,0.00,,,0.16,Wunderground v.1.15,2013-01-30 18:32:00,
2013-01-30 12:42:00,34.6,33.3,29.37,WNW,288,12.0,15.0,95,0.00,,,0.16,Wunderground v.1.15,2013-01-30 18:42:00,
2013-01-30 12:52:00,34.4,33.1,29.37,West,274,13.0,15.0,95,0.00,,,0.16,Wunderground v.1.15,2013-01-30 18:52:00,
2013-01-30 13:02:00,34.1,32.6,29.37,WNW,296,14.0,21.0,94,0.00,,,0.16,Wunderground v.1.15,2013-01-30 19:02:00,
2013-01-30 13:12:00,33.8,32.3,29.37,WNW,290,14.0,14.0,94,0.00,,,0.16,Wunderground v.1.15,2013-01-30 19:12:00,
2013-01-30 13:22:00,33.7,32.2,29.37,WNW,282,13.0,14.0,94,0.00,,,0.16,Wunderground v.1.15,2013-01-30 19:22:00,
2013-01-30 13:32:00,33.5,31.7,29.38,WNW,286,14.0,17.0,93,0.00,,,0.16,Wunderground v.1.15,2013-01-30 19:32:00,
2013-01-30 13:42:00,33.3,31.5,29.39,NW,314,16.0,16.0,93,0.00,,,0.16,Wunderground v.1.15,2013-01-30 19:42:00,
2013-01-30 13:52:00,33.2,31.1,29.39,WNW,299,16.0,16.0,92,0.00,,,0.16,Wunderground v.1.15,2013-01-30 19:52:00,
2013-01-30 14:02:00,33.0,31.2,29.39,WNW,293,15.0,21.0,93,0.00,,,0.16,Wunderground v.1.15,2013-01-30 20:02:00,
2013-01-30 14:12:00,32.7,30.9,29.40,WNW,290,15.0,18.0,93,0.00,,,0.16,Wunderground v.1.15,2013-01-30 20:12:00,
2013-01-30 14:22:00,32.0,30.2,29.41,WNW,292,17.0,20.0,93,0.00,,,0.16,Wunderground v.1.15,2013-01-30 20:22:00,
2013-01-30 14:32:00,31.6,29.8,29.42,WNW,294,18.0,18.0,93,0.00,,,0.16,Wunderground v.1.15,2013-01-30 20:32:00,
2013-01-30 14:42:00,31.6,29.8,29.43,West,280,14.0,15.0,93,0.00,,,0.16,Wunderground v.1.15,2013-01-30 20:42:00,
2013-01-30 14:52:00,30.8,28.8,29.44,WNW,286,17.0,19.0,92,0.00,,,0.16,Wunderground v.1.15,2013-01-30 20:52:00,
2013-01-30 15:02:00,30.3,28.0,29.45,WNW,295,18.0,18.0,91,0.00,,,0.16,Wunderground v.1.15,2013-01-30 21:02:00,
2013-01-30 15:12:00,30.2,27.6,29.47,NW,305,19.0,19.0,90,0.00,,,0.16,Wunderground v.1.15,2013-01-30 21:12:00,
2013-01-30 15:22:00,30.2,27.3,29.48,WNW,288,19.0,19.0,89,0.00,,,0.16,Wunderground v.1.15,2013-01-30 21:22:00,
2013-01-30 15:32:00,30.0,26.9,29.49,NW,315,18.0,18.0,88,0.00,,,0.16,Wunderground v.1.15,2013-01-30 21:32:00,
2013-01-30 15:42:00,29.9,26.5,29.50,NW,321,16.0,17.0,87,0.00,,,0.16,Wunderground v.1.15,2013-01-30 21:42:00,
2013-01-30 15:52:00,29.7,26.3,29.50,NNW,337,18.0,18.0,87,0.00,,,0.16,Wunderground v.1.15,2013-01-30 21:52:00,
2013-01-30 16:02:00,29.8,26.1,29.51,NW,319,15.0,27.0,86,0.00,,,0.16,Wunderground v.1.15,2013-01-30 22:02:00,
2013-01-30 16:12:00,29.7,26.0,29.51,NW,311,16.0,16.0,86,0.00,,,0.16,Wunderground v.1.15,2013-01-30 22:12:00,
2013-01-30 16:22:00,29.7,26.0,29.52,WNW,300,15.0,15.0,86,0.00,,,0.16,Wunderground v.1.15,2013-01-30 22:22:00,
2013-01-30 16:32:00,29.6,26.2,29.53,NW,304,13.0,14.0,87,0.00,,,0.16,Wunderground v.1.15,2013-01-30 22:32:00,
2013-01-30 16:42:00,29.0,25.3,29.54,NW,309,18.0,18.0,86,0.00,,,0.16,Wunderground v.1.15,2013-01-30 22:42:00,
2013-01-30 16:52:00,28.6,24.9,29.55,WNW,297,16.0,17.0,86,0.00,,,0.16,Wunderground v.1.15,2013-01-30 22:52:00,
2013-01-30 17:02:00,28.2,24.6,29.55,WNW,296,17.0,17.0,86,0.00,,,0.16,Wunderground v.1.15,2013-01-30 23:02:00,
2013-01-30 17:12:00,28.2,24.8,29.56,WNW,292,15.0,15.0,87,0.00,,,0.16,Wunderground v.1.15,2013-01-30 23:12:00,
2013-01-30 17:22:00,27.5,23.9,29.57,WNW,295,19.0,19.0,86,0.00,,,0.16,Wunderground v.1.15,2013-01-30 23:22:00,
2013-01-30 17:32:00,27.3,25.3,29.59,WNW,291,17.0,18.0,92,0.00,,,0.16,Wunderground v.1.15,2013-01-30 23:32:00,
2013-01-30 17:42:00,27.0,23.1,29.60,WNW,300,16.0,16.0,85,0.00,,,0.16,Wunderground v.1.15,2013-01-30 23:42:00,
2013-01-30 17:52:00,27.0,23.4,29.61,WNW,300,15.0,15.0,86,0.00,,,0.16,Wunderground v.1.15,2013-01-30 23:52:00,
2013-01-30 18:02:00,26.6,22.7,29.61,WNW,282,15.0,27.0,85,0.00,,,0.16,Wunderground v.1.15,2013-01-31 00:02:00,
2013-01-30 18:12:00,26.6,22.7,29.62,WNW,296,15.0,15.0,85,0.00,,,0.16,Wunderground v.1.15,2013-01-31 00:12:00,
2013-01-30 18:22:00,26.2,22.3,29.63,WNW,286,15.0,20.0,85,0.00,,,0.16,Wunderground v.1.15,2013-01-31 00:22:00,
2013-01-30 18:32:00,25.8,21.6,29.63,NW,304,18.0,20.0,84,0.00,,,0.16,Wunderground v.1.15,2013-01-31 00:32:00,
2013-01-30 18:42:00,25.6,21.4,29.64,WNW,300,18.0,18.0,84,0.00,,,0.16,Wunderground v.1.15,2013-01-31 00:42:00,
2013-01-30 18:52:00,25.6,21.7,29.64,WNW,296,16.0,16.0,85,0.00,,,0.16,Wunderground v.1.15,2013-01-31 00:52:00,
2013-01-30 19:02:00,25.5,21.9,29.65,NW,304,14.0,28.0,86,0.00,,,0.16,Wunderground v.1.15,2013-01-31 01:02:00,
2013-01-30 19:12:00,25.3,21.4,29.65,WNW,286,17.0,19.0,85,0.00,,,0.16,Wunderground v.1.15,2013-01-31 01:12:00,
2013-01-30 19:22:00,25.1,21.2,29.66,West,281,16.0,16.0,85,0.00,,,0.16,Wunderground v.1.15,2013-01-31 01:22:00,
2013-01-30 19:32:00,24.9,21.0,29.66,WNW,286,17.0,17.0,85,0.00,,,0.16,Wunderground v.1.15,2013-01-31 01:32:00,
2013-01-30 19:42:00,24.7,20.8,29.67,WNW,300,17.0,17.0,85,0.00,,,0.16,Wunderground v.1.15,2013-01-31 01:42:00,
2013-01-30 19:52:00,24.3,19.9,29.68,WNW,285,21.0,22.0,83,0.00,,,0.16,Wunderground v.1.15,2013-01-31 01:52:00,
2013-01-30 20:02:00,24.2,19.8,29.68,NW,304,19.0,27.0,83,0.00,,,0.16,Wunderground v.1.15,2013-01-31 02:02:00,
2013-01-30 20:12:00,24.2,20.1,29.69,WNW,292,17.0,19.0,84,0.00,,,0.16,Wunderground v.1.15,2013-01-31 02:12:00,
2013-01-30 20:22:00,24.2,20.1,29.70,WNW,290,16.0,17.0,84,0.00,,,0.16,Wunderground v.1.15,2013-01-31 02:22:00,
2013-01-30 20:32:00,24.4,20.3,29.70,WNW,292,16.0,16.0,84,0.00,,,0.16,Wunderground v.1.15,2013-01-31 02:32:00,
2013-01-30 20:42:00,24.6,20.7,29.71,WNW,293,15.0,15.0,85,0.00,,,0.16,Wunderground v.1.15,2013-01-31 02:42:00,
2013-01-30 20:52:00,24.5,20.4,29.71,WNW,289,17.0,17.0,84,0.00,,,0.16,Wunderground v.1.15,2013-01-31 02:52:00,
2013-01-30 21:02:00,24.3,20.2,29.71,WNW,294,17.0,29.0,84,0.00,,,0.16,Wunderground v.1.15,2013-01-31 03:02:00,
2013-01-30 21:12:00,24.1,20.0,29.73,WNW,299,16.0,16.0,84,0.00,,,0.16,Wunderground v.1.15,2013-01-31 03:12:00,
2013-01-30 21:22:00,23.7,19.3,29.73,WNW,287,18.0,18.0,83,0.00,,,0.16,Wunderground v.1.15,2013-01-31 03:22:00,
2013-01-30 21:32:00,23.7,19.0,29.74,WNW,288,17.0,17.0,82,0.00,,,0.16,Wunderground v.1.15,2013-01-31 03:32:00,
2013-01-30 21:42:00,23.8,19.4,29.74,WNW,288,16.0,16.0,83,0.00,,,0.16,Wunderground v.1.15,2013-01-31 03:42:00,
2013-01-30 21:52:00,23.9,19.5,29.74,WNW,286,16.0,16.0,83,0.00,,,0.16,Wunderground v.1.15,2013-01-31 03:52:00,
2013-01-30 22:02:00,23.6,18.9,29.74,WNW,293,17.0,17.0,82,0.00,,,0.16,Wunderground v.1.15,2013-01-31 04:02:00,
2013-01-30 22:12:00,23.5,18.8,29.75,WNW,283,17.0,19.0,82,0.00,,,0.16,Wunderground v.1.15,2013-01-31 04:12:00,
2013-01-30 22:22:00,23.2,18.2,29.76,WNW,286,18.0,18.0,81,0.00,,,0.16,Wunderground v.1.15,2013-01-31 04:22:00,
2013-01-30 22:32:00,22.9,17.9,29.76,West,275,17.0,17.0,81,0.00,,,0.16,Wunderground v.1.15,2013-01-31 04:32:00,
2013-01-30 22:42:00,22.7,17.7,29.77,WNW,288,16.0,19.0,81,0.00,,,0.16,Wunderground v.1.15,2013-01-31 04:42:00,
2013-01-30 22:52:00,22.5,17.8,29.77,WNW,286,17.0,17.0,82,0.00,,,0.16,Wunderground v.1.15,2013-01-31 04:52:00,
2013-01-30 23:02:00,22.4,17.7,29.78,WNW,294,15.0,15.0,82,0.00,,,0.16,Wunderground v.1.15,2013-01-31 05:02:00,
2013-01-30 23:12:00,22.2,17.3,29.78,WNW,292,18.0,18.0,81,0.00,,,0.16,Wunderground v.1.15,2013-01-31 05:12:00,
2013-01-30 23:22:00,22.2,17.5,29.79,WNW,289,15.0,16.0,82,0.00,,,0.16,Wunderground v.1.15,2013-01-31 05:22:00,
2013-01-30 23:32:00,22.0,17.6,29.79,WNW,290,16.0,16.0,83,0.00,,,0.16,Wunderground v.1.15,2013-01-31 05:32:00,
2013-01-30 23:42:00,21.5,16.6,29.80,WNW,286,16.0,16.0,81,0.00,,,0.16,Wunderground v.1.15,2013-01-31 05:42:00,
2013-01-30 23:52:00,21.0,16.1,29.80,West,280,16.0,18.0,81,0.00,,,0.16,Wunderground v.1.15,2013-01-31 05:52:00,